Wind_Speed
82 83 85 86 86 87 88 89 90 91 92 92 93 93 94 94 95 97 97 98 99 100 100 101 103 104 103 104 104 105 106 107 109 109 108 108 108 108 109 109 110 110 111 112 112 113 113 114 115 115 116 116 117 118 118 118 119 119 119 119 119 119 119 119 119 119 120 121 121 121 121 121 121 121 121 122 122 122 122 122 122 122 122 122 122 122
77 78 79 81 81 82 83 84 85 86 87 88 88 89 90 90 90 92 92 93 95 96 96 97 98 98 98 99 101 101 103 104 104 105 105 105 106 106 107 107 108 109 109 110 111 112 113 113 114 115 116 116 117 118 118 118 119 119 119 119 119 120 120 120 121 121 122 122 122 123 123 123 123 122 122 122 122 122 122 122 122 121 121 121 121 120
73 74 75 76 77 78 79 80 81 82 83 84 85 85 86 86 87 88 88 90 91 93 94 95 96 94 93 96 98 100 101 102 102 103 103 104 105 105 106 107 107 108 109 110 111 111 112 113 114 115 116 116 117 118 118 119 119 119 120 120 121 121 121 122 122 122 122 122 122 122 122 122 122 122 122 122 122 122 121 121 121 121 120 120 120 120
68 70 71 73 74 75 76 77 78 79 80 80 81 82 83 84 85 85 85 87 89 90 91 93 94 93 91 93 96 98 100 100 101 102 103 104 104 105 106 107 108 109 109 110 111 112 113 114 114 115 116 116 117 118 118 119 119 120 120 120 121 121 121 121 121 121 121 121 121 121 121 121 121 121 121 121 121 121 121 121 121 121 120 120 120 120
63 64 66 67 69 70 71 72 74 76 77 77 78 80 80 82 83 84 83 84 87 88 89 90 92 93 91 92 95 97 98 100 102 103 103 104 105 106 107 107 108 109 110 110 111 112 112 113 114 114 115 115 116 116 117 117 118 118 118 118 118 119 119 119 119 119 119 119 119 119 120 120 120 120 119 119 119 119 119 119 119 119 119 119 118 118
60 61 62 64 65 67 68 69 71 73 74 75 76 78 79 80 81 83 84 84 86 89 89 89 92 94 93 93 95 97 98 100 101 102 103 103 104 105 105 106 106 107 107 108 109 109 110 111 111 112 113 113 114 114 115 115 115 116 116 116 116 116 117 117 117 118 118 118 118 118 119 119 119 119 119 119 119 119 119 119 119 119 119 119 119 119
59 61 62 63 65 66 68 69 70 72 74 75 76 78 80 81 82 83 85 85 87 89 90 89 91 93 93 92 92 93 95 97 98 98 99 100 100 101 102 103 104 104 105 106 107 108 109 109 110 111 112 113 114 114 114 115 115 116 116 116 117 117 117 118 118 118 119 119 119 120 120 120 120 121 121 121 121 121 121 121 121 121 122 122 121 121
60 62 63 64 66 67 68 70 71 72 74 75 76 77 78 79 80 81 82 83 84 86 86 86 88 90 91 90 88 89 91 93 94 96 97 98 99 100 101 102 104 105 106 107 108 109 110 111 112 113 114 114 115 116 116 117 117 118 118 119 119 120 120 120 121 121 122 122 122 123 123 123 123 123 123 124 124 124 124 124 124 124 124 124 124 124
57 58 60 62 63 64 65 65 66 67 68 70 70 71 73 74 75 76 78 79 81 83 84 85 87 88 90 90 89 90 92 93 94 97 98 99 101 102 103 104 105 107 108 109 110 111 112 113 114 115 116 117 118 118 119 120 120 121 121 122 122 123 124 124 124 125 125 126 126 126 126 127 127 127 127 127 127 127 127 127 127 127 127 127 127 127
50 52 53 55 56 57 58 59 61 62 63 65 66 68 70 72 74 75 77 79 81 83 84 86 89 90 91 91 91 93 95 96 96 98 100 102 103 104 105 107 108 109 110 111 112 113 114 115 116 117 118 119 119 120 121 122 123 123 124 124 125 125 126 127 127 128 128 128 129 129 129 129 129 130 130 130 130 130 130 130 130 130 130 130 130 130
46 47 49 51 53 54 56 58 60 61 63 64 66 68 70 72 75 77 78 81 84 85 87 88 90 92 93 93 94 95 96 98 98 98 100 102 103 105 106 107 109 110 111 112 113 114 115 116 117 118 119 120 121 122 123 123 124 125 126 126 127 127 128 129 129 130 130 131 131 131 132 132 132 132 132 132 132 132 132 132 132 133 133 133 133 133
45 48 50 52 54 56 58 60 62 64 66 67 69 70 72 74 76 78 79 81 84 86 88 89 91 92 94 95 95 97 98 99 100 100 101 102 103 105 106 108 109 110 112 113 114 115 116 117 119 120 121 122 123 124 125 125 126 127 128 129 130 130 131 131 132 133 133 134 134 134 134 135 135 135 135 135 135 135 135 135 135 135 135 136 135 135
48 50 53 55 57 59 61 62 64 66 68 69 71 72 73 75 77 78 80 82 84 87 88 90 91 93 94 96 98 99 100 101 102 103 104 104 105 106 108 109 110 112 113 114 115 116 117 118 119 121 122 123 124 125 126 127 127 128 129 130 131 132 132 133 134 134 135 136 136 136 137 137 137 137 138 138 138 138 138 138 138 138 138 138 138 138
51 53 55 57 59 61 62 64 66 67 69 70 71 73 74 76 77 79 81 82 84 87 89 90 93 94 96 97 99 100 102 103 104 105 105 106 106 107 108 109 110 111 112 113 114 115 116 117 118 119 120 121 122 123 124 125 126 127 128 129 130 130 131 132 133 134 134 135 136 136 137 137 138 138 138 138 139 139 139 139 139 139 140 140 140 140
53 56 58 59 61 62 63 64 65 67 69 70 72 73 75 77 78 80 81 83 84 87 89 90 91 94 96 97 98 99 100 101 102 102 103 103 104 104 105 105 106 107 108 108 109 110 111 112 113 114 115 116 117 118 119 121 122 123 124 125 126 127 128 129 130 131 132 133 133 134 135 135 136 136 137 137 137 138 138 138 139 139 139 139 140 140
54 56 58 59 61 62 63 65 66 68 69 71 72 74 76 77 79 81 81 82 84 85 87 88 88 89 91 93 94 95 95 96 96 97 97 98 98 98 99 99 100 101 101 102 103 104 105 106 107 108 110 111 112 113 114 115 116 118 119 120 121 122 123 124 125 126 127 129 130 131 131 132 133 134 134 135 135 135 136 136 137 137 137 138 138 138
54 55 57 58 60 62 64 65 67 68 70 72 73 74 76 77 78 79 80 81 81 82 83 85 85 84 85 86 88 90 90 90 90 91 91 91 91 92 93 93 94 95 95 96 98 99 100 101 102 103 104 105 106 107 108 109 111 112 113 114 115 116 117 118 119 121 122 123 124 126 127 127 128 129 130 131 131 132 133 133 134 134 135 135 136 136
55 56 57 59 61 63 65 66 67 69 70 71 72 73 74 75 75 76 76 76 77 78 78 80 82 81 80 81 81 83 83 84 85 85 85 86 86 87 88 89 89 89 90 91 92 93 94 95 97 98 99 100 101 102 103 104 105 107 108 109 110 111 112 113 114 115 116 117 119 120 121 122 123 124 125 125 126 127 127 128 129 130 130 131 132 133
55 57 59 61 63 64 66 68 69 70 71 71 71 71 71 71 71 71 72 72 72 72 71 73 77 76 75 77 78 78 79 79 81 82 83 84 85 86 87 88 88 88 88 88 89 90 90 91 93 94 95 96 97 99 100 101 102 103 104 105 106 107 108 109 110 111 112 113 114 115 116 117 118 119 120 121 121 122 123 124 124 125 126 126 127 128
57 59 62 64 66 68 68 69 69 69 69 69 68 68 68 68 68 68 69 70 70 69 67 68 73 74 72 73 76 77 77 79 79 80 82 82 83 84 85 85 85 85 86 86 86 86 86 87 88 89 90 91 92 94 95 97 98 100 101 102 103 105 106 107 108 108 109 110 111 112 112 113 114 115 115 116 117 118 118 119 120 121 122 122 123 124
60 63 65 67 68 68 68 67 66 65 65 65 65 65 65 65 65 65 66 68 69 69 67 66 68 71 71 71 73 74 75 76 77 77 78 78 78 79 80 81 81 81 81 82 82 82 81 81 82 83 84 85 86 88 89 90 92 93 95 96 97 99 101 102 103 104 105 106 107 108 109 110 111 112 112 112 113 113 114 114 115 116 117 118 119 120
63 66 67 67 67 66 65 64 63 62 61 61 61 62 62 62 62 61 61 64 66 66 65 64 64 66 67 68 69 71 72 73 74 73 73 74 75 76 77 77 78 78 78 79 79 80 80 79 79 79 80 81 82 83 84 85 87 88 89 90 91 93 94 96 97 99 100 101 102 103 105 106 107 108 109 110 110 111 111 111 112 112 113 113 114 114
65 66 66 66 65 65 64 63 62 61 61 61 61 60 60 59 58 58 59 60 62 63 63 62 63 63 64 64 66 67 69 71 72 71 71 72 74 75 75 76 77 77 78 78 78 79 79 80 79 78 79 80 80 81 82 84 84 85 85 86 87 88 89 90 92 93 94 95 97 98 99 101 102 104 105 106 107 108 109 109 110 110 110 111 111 111
65 65 64 63 62 62 62 61 60 59 58 58 58 58 58 56 54 55 56 57 59 61 61 61 63 64 63 63 65 66 68 70 71 71 70 71 73 75 75 76 76 76 76 77 77 77 78 79 80 80 80 80 81 82 83 84 85 85 85 86 86 87 87 88 89 89 90 91 92 93 95 96 98 99 101 102 104 105 106 106 107 108 108 109 109 110
63 63 63 61 60 59 58 57 56 56 55 55 55 55 54 53 51 52 53 54 55 57 59 58 60 63 64 64 65 66 66 68 69 68 67 68 70 71 72 73 74 74 74 75 75 75 76 77 78 78 80 81 82 83 84 85 86 87 87 87 88 88 88 88 89 89 89 89 90 90 91 92 93 95 96 97 99 100 102 103 104 105 106 106 107 108
63 62 62 62 61 60 59 58 57 57 57 57 57 57 56 54 52 52 54 55 54 56 58 58 58 61 64 65 65 66 66 67 67 67 66 66 67 68 69 69 70 71 72 73 73 74 74 75 76 77 78 80 81 82 83 85 86 86 87 87 87 87 87 87 88 88 88 88 89 89 89 90 90 91 92 93 94 96 97 99 100 101 102 103 104 105
62 62 62 62 63 62 62 61 60 59 59 59 59 60 60 59 56 55 56 58 58 58 59 60 60 59 62 65 66 66 67 68 68 68 67 68 68 68 68 69 69 70 72 72 73 74 74 74 75 77 77 78 79 80 81 83 84 85 85 85 85 84 84 84 84 84 84 85 85 86 86 87 88 88 88 89 90 91 92 93 95 96 97 99 100 101
62 61 61 62 63 63 62 62 62 61 60 60 61 62 63 63 60 59 59 60 61 61 61 63 64 62 62 65 67 68 68 69 69 69 69 70 70 70 70 70 70 71 72 72 73 74 75 75 74 75 76 77 77 79 80 81 82 83 83 82 82 81 81 81 81 81 81 81 81 82 82 83 84 84 85 85 86 87 88 89 90 91 92 93 95 96
62 63 63 63 63 64 63 63 63 63 62 62 62 63 65 66 64 61 61 62 63 64 64 64 66 67 65 66 68 70 71 71 71 70 70 71 71 71 72 71 71 71 72 72 73 74 75 75 75 75 75 75 76 77 78 80 81 81 81 80 79 79 79 78 79 78 78 78 78 79 79 80 81 81 81 82 82 83 84 84 85 86 87 88 89 90
63 64 65 65 65 65 66 66 66 66 65 64 64 65 67 69 68 65 63 64 65 65 66 66 66 68 68 67 69 70 71 73 72 70 71 71 72 72 73 74 74 74 74 74 74 75 76 76 76 76 75 75 76 77 78 79 80 80 80 79 78 78 77 77 77 77 77 77 76 76 77 77 78 78 79 79 79 80 80 80 81 82 82 84 84 85
63 65 66 67 68 68 69 69 68 68 68 68 67 67 68 71 73 70 67 68 68 68 69 69 69 70 70 70 71 71 72 74 73 71 71 72 73 74 74 75 75 75 75 75 75 76 77 77 77 76 76 76 76 77 78 79 80 80 79 78 77 77 77 77 76 76 75 75 75 75 75 75 76 76 76 77 77 77 77 77 78 78 78 79 80 81
64 65 66 68 69 70 70 71 70 69 70 70 70 70 70 72 76 77 73 72 73 73 73 74 73 73 74 74 75 76 77 78 77 74 73 74 74 75 76 76 76 76 75 75 76 76 77 77 77 77 76 76 76 77 78 79 79 80 79 78 77 76 76 76 76 75 75 74 74 73 73 73 74 74 74 75 75 75 75 75 75 75 76 77 77 78
65 66 67 68 70 71 72 73 74 73 73 73 73 73 73 74 78 81 78 75 75 76 76 77 77 78 78 78 78 78 80 82 82 79 78 77 76 76 77 77 77 77 77 76 76 76 77 77 77 78 77 76 77 77 78 79 80 80 79 77 76 75 75 76 75 74 74 73 73 72 72 72 72 72 72 73 73 73 73 73 73 73 74 74 75 76
66 67 68 68 70 71 73 74 76 77 76 76 76 76 77 76 78 83 84 80 79 80 79 79 80 80 81 81 80 80 81 83 85 83 82 82 80 78 79 79 79 79 79 78 77 77 78 78 78 79 78 78 78 78 79 80 80 79 78 77 75 74 74 75 74 74 73 72 72 72 71 71 71 71 71 71 71 71 71 71 71 71 72 72 73 74
67 68 69 70 70 72 73 74 76 79 80 80 80 80 80 79 79 82 86 85 84 84 84 84 84 84 84 84 83 83 83 85 88 87 85 85 84 82 81 81 81 81 81 81 81 80 80 81 81 80 80 79 79 79 79 80 80 79 78 75 74 73 73 74 74 73 72 72 71 71 71 71 71 71 71 70 70 70 70 70 70 70 70 70 71 72
68 69 71 72 72 72 74 75 76 78 80 82 82 82 82 81 79 81 84 87 87 86 86 87 87 87 87 87 87 86 86 87 90 90 88 88 87 85 84 83 83 83 84 84 85 84 83 83 83 83 81 80 79 79 79 80 80 79 77 75 73 73 73 73 73 72 71 71 71 70 70 71 71 71 70 70 70 70 69 69 69 69 69 69 70 70
70 71 72 74 74 75 75 76 76 77 78 80 81 83 83 83 82 82 83 86 89 89 89 90 89 89 90 90 91 90 88 88 91 93 91 89 89 87 86 84 84 84 85 86 87 87 85 85 85 85 83 81 80 79 79 79 79 78 76 74 73 73 73 73 73 71 69 69 70 69 70 70 70 70 70 70 70 69 69 68 68 68 68 68 69 69
72 74 74 76 77 78 79 79 79 79 79 81 83 85 86 87 87 86 86 87 89 91 91 92 92 92 93 94 94 94 92 90 91 94 94 92 91 89 87 86 85 84 84 84 86 87 87 87 86 86 85 83 81 80 79 79 79 78 76 74 73 73 73 73 72 70 68 68 68 68 68 69 68 68 69 69 69 69 68 67 67 67 67 67 67 68
73 75 76 78 79 81 82 83 84 84 84 85 86 88 89 90 91 91 90 90 91 93 94 95 96 96 97 97 97 98 97 94 92 95 96 96 95 94 91 89 88 87 86 85 85 87 88 88 87 87 86 83 82 80 80 80 79 78 76 75 74 73 73 73 71 69 67 66 67 67 67 67 67 67 67 67 67 67 66 66 65 65 65 65 66 66
73 75 77 78 80 82 82 84 86 87 87 88 89 90 91 93 95 96 96 96 95 97 98 99 99 100 100 100 100 100 101 101 98 98 99 99 98 98 97 95 92 91 89 88 87 87 88 88 88 87 86 84 82 81 80 80 79 78 76 75 74 74 73 72 70 68 66 66 66 66 66 65 66 65 65 65 65 65 65 64 63 63 63 63 64 64
72 75 77 79 80 82 84 85 86 88 89 89 90 92 93 95 97 99 101 102 102 102 103 104 104 103 103 103 103 103 104 105 104 103 103 103 102 101 100 98 96 94 93 92 91 90 89 90 89 88 86 85 82 81 80 79 79 77 76 75 75 74 73 72 69 67 66 66 66 65 65 64 64 64 63 63 63 63 63 62 61 61 61 61 62 63
72 74 77 79 81 83 85 86 87 88 90 92 93 93 95 97 99 100 103 105 107 107 107 107 108 107 106 106 106 106 106 106 107 107 106 106 105 103 102 100 99 97 96 95 94 93 91 91 90 88 87 85 83 81 80 79 78 77 76 75 75 74 74 71 69 67 66 66 66 65 64 64 63 62 62 61 61 61 61 60 59 59 59 59 60 61
73 74 76 79 81 83 86 88 90 91 92 94 95 96 97 98 100 101 102 104 107 109 110 110 111 111 110 109 109 109 109 108 108 108 108 108 107 106 104 103 101 100 98 97 96 95 93 92 91 89 87 86 83 82 80 79 78 77 76 75 75 74 73 71 69 67 67 66 65 64 63 63 62 61 60 60 59 59 59 58 57 57 57 57 58 59
73 75 76 78 81 84 86 89 92 94 95 95 96 98 99 100 101 103 104 105 107 109 111 112 112 112 113 112 111 111 111 110 110 110 109 109 108 107 105 104 103 102 101 100 99 97 96 94 92 90 88 86 84 82 81 79 78 77 76 75 75 74 73 71 69 68 67 66 64 64 63 62 61 60 59 58 58 58 57 56 56 55 55 55 56 57
73 75 76 78 80 83 86 88 91 94 95 96 96 97 98 99 101 103 105 107 109 110 112 113 113 114 114 114 113 113 113 112 112 112 112 111 109 108 106 105 105 104 103 102 101 99 97 95 93 90 88 86 84 82 81 79 78 76 76 75 74 73 72 70 68 67 66 65 64 63 62 61 60 59 58 57 57 56 56 55 54 54 53 53 54 55
74 74 76 78 79 80 83 85 88 91 93 95 96 97 98 99 101 103 104 106 108 110 112 114 115 115 116 116 115 115 115 115 114 113 113 112 111 109 108 106 106 105 104 103 102 100 97 95 92 90 89 87 84 82 81 79 77 76 75 75 74 72 71 69 68 67 65 64 63 62 61 61 59 58 57 57 56 55 55 54 53 53 52 52 52 54
74 74 75 77 80 80 81 84 86 89 92 94 95 97 98 100 101 103 105 106 108 111 113 115 117 117 118 118 118 117 117 117 116 115 114 113 111 110 108 107 106 105 104 103 101 99 97 95 92 90 88 87 85 83 81 79 77 75 74 74 73 71 70 69 67 66 65 63 62 62 61 60 59 58 57 57 56 55 54 53 52 52 52 51 51 52
75 75 75 76 79 81 82 83 85 88 92 95 96 97 98 99 100 103 105 107 109 111 113 116 118 119 120 120 120 119 118 119 118 116 115 114 112 110 109 107 106 105 104 103 101 99 97 94 92 90 88 86 85 83 81 79 77 75 74 73 72 70 69 68 66 65 64 62 62 61 60 60 58 58 57 57 56 55 54 52 51 51 50 50 50 50
76 77 78 77 79 81 83 84 85 86 89 93 96 98 99 100 101 103 105 107 109 111 114 116 118 121 122 122 122 120 120 120 119 118 116 115 113 111 110 108 107 107 106 104 102 99 96 94 92 89 88 86 84 82 80 78 76 74 73 72 70 69 68 67 66 65 63 62 61 60 60 59 58 57 57 57 56 55 54 52 50 49 49 49 48 48
78 79 80 79 80 82 84 86 88 89 89 92 95 98 100 101 102 103 105 107 109 112 114 117 118 120 122 123 123 122 121 120 120 119 117 116 115 113 112 111 109 108 106 105 102 99 95 93 91 89 87 85 84 82 80 77 75 73 72 71 69 68 66 65 65 64 62 61 60 60 59 58 58 57 57 56 56 55 55 53 50 47 46 46 47 47
79 80 81 81 81 82 84 86 89 91 92 93 95 98 99 101 103 104 106 108 110 113 115 118 119 120 121 122 124 124 123 122 121 120 118 117 116 115 113 112 110 108 105 103 100 97 94 92 90 88 86 85 83 81 79 76 74 73 71 70 68 67 66 65 64 63 62 61 60 59 58 58 57 57 56 56 55 54 54 54 52 48 44 42 43 45
Wind_Direction
264 265 265 266 267 267 268 268 269 269 269 270 270 270 270 271 271 272 272 272 272 272 272 273 273 273 274 274 274 274 274 274 274 274 274 274 274 274 274 274 274 274 274 274 274 274 274 274 274 274 274 274 274 274 274 274 274 274 274 274 275 275 274 274 274 274 274 274 274 274 274 274 274 274 273 273 273 273 273 272 272 272 272 272 272 272
266 267 267 268 268 269 269 270 270 270 270 271 271 271 271 271 272 272 272 273 273 273 273 273 273 273 274 274 274 274 274 274 274 274 275 275 275 275 274 274 274 275 275 275 275 275 275 275 274 274 274 275 275 275 275 275 275 275 275 275 275 275 275 274 274 274 274 274 274 274 274 274 274 274 274 274 274 273 273 273 273 273 272 272 272 272
267 268 268 269 269 270 270 271 271 271 271 272 272 272 272 272 272 272 273 273 273 273 273 273 273 273 274 274 275 275 275 275 275 275 275 275 275 275 276 276 276 276 276 276 276 276 276 276 276 276 276 276 276 276 276 276 276 275 275 275 275 275 275 275 275 275 275 275 275 275 275 275 275 274 274 274 274 274 273 273 273 272 272 272 271 271
269 269 269 270 270 270 271 271 272 272 272 272 273 273 273 273 273 272 273 273 273 274 274 274 274 274 274 275 275 276 276 277 277 277 277 277 277 277 277 277 277 277 277 277 277 277 277 277 277 277 277 277 276 276 276 276 276 276 276 276 276 276 276 276 276 276 275 275 275 275 275 275 274 274 274 274 273 273 273 273 272 272 272 271 271 271
271 271 271 271 271 271 272 272 272 273 273 273 273 273 274 274 275 275 274 275 275 276 276 276 277 277 276 277 277 277 278 279 279 279 279 279 279 279 279 279 278 278 278 278 278 277 277 277 277 277 277 276 276 276 276 276 276 276 276 276 276 276 276 275 275 275 275 275 275 275 274 274 274 274 273 273 273 273 272 272 272 272 271 271 271 270
273 273 273 273 273 273 273 274 274 275 275 275 276 276 277 277 277 278 278 278 278 278 278 278 279 279 278 278 279 279 280 280 280 280 280 280 279 279 279 278 278 278 278 278 277 277 277 277 277 277 276 276 276 276 276 276 276 276 276 276 276 276 275 275 275 275 275 274 274 274 274 274 273 273 273 273 272 272 272 272 272 271 271 271 271 270
275 275 275 276 276 276 276 277 277 278 279 279 280 280 281 281 281 281 281 281 281 281 280 280 280 279 279 278 279 279 279 279 279 279 279 279 279 279 279 279 278 278 278 278 278 278 278 278 278 277 277 277 277 277 277 277 277 277 277 276 276 276 276 275 275 275 275 274 274 274 274 273 273 273 273 272 272 272 272 272 271 271 271 271 271 271
278 279 279 279 279 280 280 281 281 281 282 282 282 283 283 283 283 283 283 283 282 282 282 282 281 281 281 280 280 280 279 279 280 280 279 279 279 279 279 279 279 279 279 279 279 279 279 278 278 278 278 278 278 278 278 278 278 277 277 277 276 276 276 275 275 275 274 274 274 274 273 273 273 273 273 272 272 272 272 272 271 271 271 271 270 270
281 281 281 282 282 282 283 283 283 284 284 284 285 285 285 285 285 285 285 284 284 284 284 284 283 283 283 283 282 281 281 280 280 280 280 280 280 280 280 279 279 279 279 278 278 278 278 278 278 278 278 278 277 277 277 277 277 276 276 276 275 275 275 275 274 274 274 274 273 273 273 273 273 272 272 272 272 271 271 271 271 271 271 270 270 270
285 285 285 286 286 286 287 286 286 286 286 287 286 286 287 287 286 286 286 285 285 285 284 284 284 284 284 284 283 282 282 281 280 280 280 280 280 279 279 279 278 278 278 277 277 277 277 277 277 277 276 276 276 276 276 276 275 275 275 275 274 274 274 274 274 273 273 273 273 273 272 272 272 272 272 271 271 271 271 271 271 271 270 270 270 270
291 291 291 290 290 290 290 289 289 289 288 288 288 288 288 287 287 287 287 286 286 285 285 284 284 284 284 283 282 281 281 280 280 279 278 278 278 278 278 277 277 277 277 277 277 276 276 276 276 276 276 276 275 275 275 275 275 275 274 274 274 274 274 273 273 273 273 273 273 272 272 272 272 272 271 271 271 271 271 271 270 270 270 270 270 270
293 293 293 293 293 293 292 292 292 291 291 290 290 289 289 288 287 287 286 286 285 285 285 285 284 284 284 284 283 283 282 281 281 280 279 279 278 278 278 278 277 277 277 277 277 276 276 276 276 276 276 276 275 275 275 275 275 275 274 274 274 274 274 274 273 273 273 273 273 273 272 272 272 272 272 271 271 271 271 270 270 270 270 270 270 269
297 296 296 296 296 296 295 295 294 293 293 292 292 291 291 290 289 289 288 288 287 287 287 286 286 286 285 285 285 285 284 284 283 282 282 281 281 280 280 279 279 279 278 278 278 277 277 277 277 277 276 276 276 276 275 275 275 275 275 275 274 274 274 274 274 274 273 273 273 273 273 273 272 272 272 272 272 271 271 271 271 270 270 270 270 270
301 300 299 299 298 298 297 297 296 296 295 295 294 293 292 291 291 290 289 288 288 287 287 287 287 286 286 285 285 285 284 284 284 283 283 283 282 282 281 281 280 280 280 279 279 279 278 278 278 277 277 277 276 276 276 276 275 275 275 275 275 275 274 274 274 274 274 274 274 273 273 273 273 273 272 272 272 272 271 271 271 271 270 270 270 270
304 303 302 302 301 300 300 299 298 297 296 295 295 294 292 291 290 289 288 287 287 286 286 285 285 285 285 285 284 284 284 284 284 283 283 283 282 282 282 281 281 281 280 280 280 279 279 278 278 278 277 277 277 276 276 276 276 275 275 275 275 274 274 274 274 274 274 274 274 273 273 273 273 273 272 272 272 272 271 271 271 271 271 270 270 270
306 305 304 304 303 302 301 300 299 298 297 296 295 294 293 292 292 291 290 289 288 288 287 286 286 285 285 286 285 285 285 284 284 284 284 284 284 284 283 283 282 282 282 281 281 280 280 279 279 278 278 278 277 277 277 276 276 276 275 275 275 274 274 274 274 274 274 273 273 273 273 273 273 272 272 272 272 272 272 271 271 271 271 271 270 270
307 306 306 305 304 304 303 302 301 300 299 298 297 297 296 295 294 294 293 292 292 291 290 290 289 288 287 287 287 287 287 287 287 287 286 286 286 285 285 284 284 283 283 283 282 282 281 281 280 280 279 279 278 278 277 277 277 276 276 276 275 275 275 274 274 274 274 273 273 273 273 273 272 272 272 272 272 271 271 271 271 271 271 270 270 270
310 310 309 308 307 306 305 304 304 303 303 302 301 300 299 298 297 296 295 294 294 293 293 293 292 291 291 290 289 289 289 289 289 289 289 289 288 288 288 287 286 286 285 285 284 284 283 283 282 282 281 281 281 280 279 279 278 278 277 277 277 276 276 275 275 274 274 274 274 273 273 273 273 272 272 272 272 272 271 271 271 271 270 270 270 270
314 313 312 311 310 310 310 310 309 308 307 305 304 302 301 300 299 298 298 297 295 295 295 295 294 294 294 294 294 293 293 293 293 293 293 293 293 293 292 291 291 290 289 288 287 286 286 285 284 283 283 282 282 282 281 281 280 280 280 279 279 279 278 277 277 276 276 275 275 274 274 274 273 273 273 273 272 272 272 272 271 271 271 270 270 270
317 316 316 316 316 316 315 314 312 311 310 308 307 306 306 305 305 304 304 302 301 300 300 300 299 298 298 298 298 297 297 296 296 296 295 295 295 294 293 292 292 291 291 290 289 288 287 286 285 284 284 283 282 281 281 281 280 280 280 280 279 279 279 279 278 278 278 277 277 276 276 275 275 274 274 273 273 272 272 272 272 271 271 271 271 270
322 322 322 320 319 318 317 316 315 314 313 312 311 311 310 310 309 309 308 306 305 305 305 304 302 301 301 300 299 299 298 297 297 296 296 296 295 295 294 294 294 293 293 292 291 290 289 289 288 287 287 286 285 284 283 282 281 281 280 280 279 279 279 278 278 278 278 278 277 277 277 277 276 276 276 275 274 274 273 273 272 272 271 271 270 270
326 325 324 322 321 321 320 320 319 318 317 316 315 314 313 313 313 312 310 308 307 307 307 306 304 303 303 303 302 302 301 300 299 299 299 299 299 298 298 298 298 297 297 297 296 295 294 293 292 291 291 290 289 288 287 286 285 284 283 282 281 280 280 279 279 278 278 277 277 277 276 276 276 276 276 275 275 275 274 274 274 273 272 272 271 270
328 327 326 325 325 325 325 325 324 323 323 321 320 319 317 317 317 315 313 310 310 310 310 310 309 307 307 307 306 305 304 304 304 304 305 305 304 303 303 303 303 302 302 301 300 300 299 298 297 296 295 294 293 292 291 290 289 288 287 285 284 283 282 281 280 279 278 278 277 276 276 275 275 275 275 275 275 274 274 274 274 273 273 273 272 272
329 329 329 329 330 330 330 330 329 328 326 324 323 321 321 321 321 320 317 316 316 315 315 315 314 311 311 311 310 310 309 309 309 310 310 310 309 307 307 306 306 305 304 303 303 302 302 301 300 300 299 298 297 296 295 294 293 292 291 290 289 288 287 285 284 283 281 280 279 278 277 276 275 275 274 274 274 274 273 273 273 273 273 272 272 272
332 332 332 332 333 333 333 333 332 330 329 327 326 324 324 325 326 325 322 321 321 320 319 319 319 318 316 316 316 315 314 313 312 312 313 311 309 308 308 307 307 306 305 304 304 303 303 302 302 301 301 300 300 299 298 297 296 295 294 293 292 291 290 289 288 287 285 284 282 281 279 278 277 276 275 274 273 273 273 273 272 272 272 272 272 271
336 337 337 336 337 337 338 337 337 337 336 334 333 332 331 332 333 332 329 327 327 326 325 326 327 326 324 322 321 320 318 317 316 316 315 313 311 310 309 309 308 307 306 306 305 305 304 304 304 303 302 302 301 300 299 298 297 296 295 294 293 292 291 291 289 288 287 286 285 284 282 281 279 278 277 276 275 274 273 272 272 272 272 272 271 271
341 341 341 341 342 343 343 343 343 343 342 341 340 338 337 338 339 339 337 335 334 334 334 332 332 332 330 328 326 325 323 322 321 321 320 318 316 315 313 312 311 311 310 309 308 308 307 306 305 305 304 303 302 301 299 298 297 296 295 295 294 293 292 291 290 289 288 287 286 284 283 282 281 280 279 278 277 275 274 274 273 272 272 271 271 271
344 345 346 346 347 347 347 347 347 347 347 346 345 344 342 342 344 344 342 341 340 339 339 338 336 336 336 333 331 330 328 327 326 326 324 322 321 319 318 317 315 314 313 312 311 310 309 308 307 306 305 304 303 302 300 299 298 298 297 296 296 295 294 293 292 291 289 288 287 286 284 284 283 281 280 279 278 277 276 275 274 273 273 272 271 271
346 348 349 350 350 350 351 351 351 351 351 350 349 348 347 345 346 347 346 345 344 343 342 342 341 339 339 338 336 335 333 331 330 330 328 326 325 324 322 321 319 317 316 314 313 312 311 310 310 308 307 306 305 304 303 302 301 300 299 299 299 298 297 296 295 293 292 291 289 288 287 286 285 283 282 281 280 279 278 277 276 275 275 274 273 273
348 350 352 353 354 354 354 354 354 354 353 353 353 352 351 349 347 348 349 348 347 346 344 344 344 343 342 342 339 338 336 334 333 333 332 330 329 328 326 324 323 321 320 318 317 315 314 313 312 312 310 309 308 307 306 304 304 303 302 302 302 301 300 299 297 296 294 293 292 290 289 288 287 286 285 283 282 281 280 279 278 278 277 276 276 275
350 352 353 355 356 356 357 356 356 356 355 355 355 355 354 352 350 349 351 351 349 348 347 346 346 345 344 344 342 340 338 336 334 335 334 333 331 330 329 327 325 324 322 320 319 318 317 316 315 314 313 312 311 310 309 307 306 306 305 305 304 303 302 300 298 297 296 295 293 292 291 290 289 287 286 285 284 283 282 281 280 280 279 278 277 277
352 353 354 355 356 357 358 357 357 357 357 356 357 356 356 356 353 351 352 353 351 350 350 348 348 347 346 346 345 343 341 339 337 336 336 335 334 333 331 329 327 325 323 322 320 319 318 317 317 316 315 314 313 312 311 310 309 307 307 306 306 305 303 301 300 299 298 296 295 294 293 292 290 289 288 286 285 285 284 283 282 281 281 280 279 278
353 354 355 356 356 356 357 358 357 357 358 357 357 357 357 358 356 353 352 353 353 351 351 350 349 349 348 347 347 346 344 342 339 339 339 337 336 335 333 331 329 327 325 323 322 321 320 319 318 318 317 317 316 315 313 312 310 309 308 308 307 306 304 303 301 300 299 298 297 296 295 294 292 290 289 288 287 286 285 284 284 283 282 282 281 280
354 355 355 356 356 356 357 358 358 357 358 358 358 358 358 358 358 355 352 353 354 353 352 351 351 350 349 348 347 347 346 345 341 340 340 339 337 337 335 333 331 329 327 325 324 323 322 322 321 320 320 319 318 317 315 313 312 310 309 309 309 307 305 304 303 301 301 300 299 298 297 295 294 292 291 290 288 287 287 286 285 284 284 283 282 281
354 355 355 356 357 357 356 358 358 357 357 358 358 358 358 358 359 358 354 353 354 354 353 352 351 351 349 348 348 347 348 347 343 341 341 340 338 338 337 335 333 331 329 327 326 326 325 324 323 322 321 321 320 318 317 315 313 312 311 310 310 309 306 305 304 303 303 302 301 300 298 297 295 294 293 292 291 290 289 288 287 286 285 284 283 283
353 354 355 355 356 357 356 357 358 357 357 357 357 357 357 357 358 359 356 354 354 354 353 353 352 351 350 349 348 347 348 348 345 342 342 341 339 338 337 336 335 333 332 330 329 328 327 326 325 323 322 322 320 319 317 315 314 313 312 312 311 310 308 306 305 304 304 303 302 301 299 298 296 295 294 294 292 292 291 290 289 288 287 286 285 284
351 353 354 355 355 356 356 356 357 357 356 356 356 356 356 356 356 358 357 356 354 354 354 353 352 351 350 349 349 347 348 349 346 343 342 342 340 339 338 337 336 335 334 333 331 329 328 327 326 324 323 322 321 320 318 317 315 314 314 314 313 311 309 307 306 306 306 305 303 302 300 298 297 297 296 295 294 293 292 291 291 290 289 288 287 286
349 351 352 353 354 355 356 355 356 357 356 356 356 356 356 356 356 356 356 356 356 354 354 353 352 352 351 350 349 347 347 348 347 344 342 342 340 339 338 337 337 336 334 334 332 330 329 328 327 325 324 323 322 321 320 318 317 316 315 315 314 312 310 308 308 308 308 306 304 302 301 300 299 298 297 296 295 295 294 293 292 292 291 290 289 288
348 349 351 352 353 354 355 355 355 356 356 356 355 356 356 355 355 355 355 356 356 355 354 353 353 352 351 350 350 348 346 346 347 346 343 342 341 340 339 338 337 336 335 334 333 331 330 328 327 326 324 324 323 322 321 320 318 317 317 317 315 313 311 310 310 311 310 308 305 303 302 301 300 299 298 297 297 296 295 295 294 293 292 291 291 290
348 348 349 351 351 352 353 354 354 355 355 355 355 355 355 355 355 355 354 355 355 355 354 354 353 352 351 350 350 349 347 346 346 346 344 343 342 341 340 339 338 337 335 334 333 332 331 329 328 326 325 325 324 323 322 321 319 319 319 317 316 314 313 312 312 312 311 309 306 304 303 303 301 300 299 299 298 297 296 296 295 294 293 293 292 291
347 347 348 349 350 350 351 352 353 354 354 355 355 355 355 355 355 355 354 354 354 355 354 353 353 352 351 351 350 349 348 347 346 346 345 344 343 341 340 339 338 337 336 335 334 333 332 330 328 327 326 325 325 324 323 322 321 320 319 318 316 315 314 313 314 314 312 309 307 306 305 304 302 301 301 300 299 298 297 297 296 295 294 294 293 292
346 347 347 348 349 349 350 350 352 353 354 354 354 355 355 354 355 355 355 354 353 353 354 353 352 351 351 351 350 349 348 348 347 346 345 344 342 341 340 339 338 337 337 336 334 333 332 331 329 328 327 326 326 325 324 323 322 321 320 319 317 316 315 315 316 315 312 310 309 308 307 305 304 303 302 301 300 299 298 297 297 296 295 294 293 292
345 346 347 347 348 348 349 349 350 352 354 354 354 354 354 354 354 354 355 354 353 352 353 352 351 351 350 350 350 349 348 348 347 346 345 344 342 341 341 339 338 338 337 336 335 333 332 331 330 329 328 327 326 326 325 324 323 322 321 319 318 317 316 316 316 315 313 311 311 310 308 306 305 305 304 303 301 300 299 299 298 297 296 295 293 292
344 345 346 347 347 348 349 349 349 350 352 354 354 354 354 353 353 353 353 353 352 352 352 351 351 350 350 349 349 349 348 347 347 346 345 344 343 342 341 340 338 338 337 336 335 334 333 332 331 330 329 328 327 327 325 324 324 323 322 320 318 317 317 317 317 315 314 313 312 311 309 308 307 306 305 304 303 302 301 300 300 298 297 296 294 293
343 344 345 346 347 348 348 349 349 348 350 352 353 353 354 353 352 352 353 352 352 351 351 350 350 350 349 349 349 348 347 347 347 346 345 344 342 341 341 340 339 338 337 337 336 334 333 332 331 330 329 328 328 327 326 325 325 324 322 321 319 319 319 318 317 316 315 314 313 312 311 309 308 308 307 305 304 303 303 302 301 300 298 297 295 293
342 343 344 344 346 347 348 348 348 348 348 350 352 352 353 353 352 352 352 352 351 350 350 350 349 349 349 348 348 348 347 346 346 346 345 343 342 342 341 340 339 338 337 337 335 334 333 332 331 331 330 329 328 327 326 326 325 324 323 321 320 320 320 319 318 317 316 315 314 313 311 310 310 309 308 307 306 305 304 303 302 300 299 298 296 294
341 342 343 344 344 346 347 347 348 347 347 349 351 352 352 353 352 351 351 351 350 350 349 349 349 349 349 348 348 348 347 346 346 345 344 343 342 342 341 340 339 338 337 337 336 334 333 333 332 331 330 329 328 327 327 326 326 325 323 322 321 321 320 319 319 318 317 316 315 314 313 312 311 310 309 308 307 306 305 304 303 301 300 299 297 295
341 341 342 343 343 344 346 347 347 348 347 348 349 351 351 352 352 351 350 350 350 349 349 349 348 348 348 348 347 347 347 346 345 345 344 343 342 341 340 340 339 339 338 337 336 335 334 333 332 331 330 329 328 327 327 326 326 326 324 323 323 322 321 320 320 319 318 317 316 315 314 313 313 312 311 309 308 307 306 305 304 303 302 300 299 297
340 340 341 342 342 343 345 346 346 347 348 347 348 349 350 351 352 351 350 350 349 349 349 349 348 348 348 347 347 347 347 346 345 344 344 343 342 341 341 340 340 339 338 337 336 335 334 333 332 332 331 330 328 328 327 327 327 326 325 324 324 323 322 321 321 319 319 318 317 316 316 315 314 313 312 311 310 309 308 307 306 305 304 302 300 298
339 340 341 342 342 342 344 345 345 346 347 348 348 349 350 350 351 350 350 349 349 348 348 348 348 348 348 347 347 346 346 346 345 344 344 343 342 342 341 340 340 340 339 337 336 335 334 333 333 332 331 330 329 328 328 328 328 327 326 325 325 324 323 322 321 320 320 320 319 318 317 316 315 314 313 312 311 310 309 308 307 306 305 304 302 299
339 339 340 341 342 342 343 344 344 345 346 347 348 348 349 350 350 350 349 349 349 348 348 348 348 348 348 347 347 346 346 346 345 344 344 344 343 342 341 340 340 339 338 337 336 335 334 334 333 332 331 330 329 329 329 329 329 328 327 326 326 325 324 323 322 321 321 321 320 318 317 316 316 315 314 313 312 312 311 309 309 308 306 305 303 301
Height
10608 10607 10605 10603 10602 10600 10598 10596 10593 10591 10588 10586 10584 10581 10578 10576 10572 10568 10566 10562 10558 10554 10551 10547 10541 10541 10539 10532 10528 10523 10517 10513 10510 10508 10506 10503 10500 10496 10494 10490 10486 10483 10479 10476 10473 10469 10466 10462 10458 10455 10452 10448 10445 10442 10439 10436 10433 10431 10429 10426 10424 10422 10419 10417 10414 10412 10409 10406 10404 10402 10401 10399 10398 10397 10395 10393 10392 10389 10388 10387 10385 10384 10383 10381 10379 10378
10600 10599 10597 10595 10593 10591 10589 10586 10583 10581 10578 10575 10573 10570 10567 10565 10562 10558 10555 10551 10546 10541 10539 10535 10530 10531 10528 10519 10514 10509 10504 10501 10498 10496 10493 10490 10487 10483 10480 10477 10473 10470 10466 10463 10459 10455 10452 10448 10444 10440 10437 10433 10430 10427 10424 10421 10418 10416 10413 10410 10408 10405 10402 10400 10397 10394 10392 10390 10388 10386 10384 10382 10380 10380 10378 10375 10374 10372 10370 10369 10368 10366 10365 10363 10362 10361
10593 10591 10589 10587 10585 10583 10580 10577 10574 10571 10568 10566 10562 10560 10556 10554 10551 10548 10545 10540 10534 10530 10527 10523 10518 10521 10521 10509 10501 10496 10491 10489 10486 10483 10480 10477 10474 10470 10467 10464 10460 10456 10452 10448 10444 10440 10436 10432 10429 10425 10421 10418 10414 10411 10408 10405 10402 10399 10396 10393 10390 10388 10385 10383 10380 10378 10376 10374 10371 10369 10367 10365 10363 10361 10360 10358 10356 10354 10352 10351 10350 10348 10347 10346 10344 10343
10586 10583 10581 10579 10576 10574 10571 10568 10565 10561 10559 10557 10552 10549 10546 10542 10539 10538 10535 10530 10524 10519 10516 10511 10506 10509 10511 10501 10490 10484 10481 10477 10473 10470 10467 10464 10460 10457 10453 10449 10445 10441 10436 10433 10428 10424 10420 10416 10412 10409 10405 10402 10398 10395 10391 10388 10385 10382 10379 10376 10374 10372 10369 10366 10363 10361 10359 10357 10355 10352 10350 10348 10345 10344 10342 10340 10338 10337 10334 10333 10331 10330 10329 10328 10326 10326
10579 10576 10574 10571 10568 10566 10563 10560 10557 10552 10549 10547 10543 10539 10537 10533 10528 10526 10525 10521 10514 10508 10505 10502 10496 10494 10496 10490 10480 10475 10471 10465 10460 10457 10454 10450 10446 10442 10438 10433 10429 10425 10421 10416 10412 10408 10404 10400 10396 10393 10389 10385 10381 10378 10374 10371 10368 10366 10363 10361 10359 10356 10353 10351 10347 10344 10342 10340 10338 10335 10332 10330 10328 10326 10325 10323 10321 10319 10317 10315 10313 10311 10311 10310 10308 10308
10571 10569 10566 10563 10560 10558 10555 10552 10549 10544 10540 10538 10534 10530 10527 10524 10520 10515 10513 10510 10504 10496 10493 10493 10486 10479 10480 10477 10470 10465 10461 10453 10448 10445 10440 10436 10431 10426 10422 10418 10414 10410 10405 10401 10397 10393 10389 10385 10381 10377 10373 10369 10365 10362 10359 10356 10353 10351 10348 10345 10343 10340 10337 10334 10331 10328 10325 10323 10321 10318 10315 10312 10310 10308 10306 10305 10303 10301 10299 10297 10295 10293 10292 10291 10290 10289
10563 10561 10558 10555 10552 10549 10546 10543 10540 10536 10532 10528 10526 10521 10517 10513 10509 10505 10500 10497 10492 10483 10480 10481 10474 10465 10464 10465 10462 10456 10450 10442 10436 10433 10428 10422 10417 10413 10408 10404 10400 10395 10391 10387 10382 10378 10374 10370 10366 10361 10357 10353 10350 10347 10344 10341 10338 10335 10332 10329 10326 10323 10320 10317 10313 10310 10308 10305 10302 10300 10297 10294 10292 10290 10288 10286 10285 10283 10281 10279 10277 10275 10273 10273 10272 10271
10556 10553 10550 10547 10544 10541 10538 10535 10532 10528 10524 10520 10517 10512 10508 10503 10498 10495 10489 10485 10480 10472 10468 10468 10461 10453 10450 10451 10452 10445 10437 10432 10425 10419 10415 10410 10405 10400 10396 10391 10386 10382 10377 10373 10368 10364 10360 10355 10351 10346 10342 10338 10335 10332 10329 10325 10322 10318 10315 10312 10308 10305 10302 10299 10296 10292 10289 10287 10284 10281 10279 10276 10274 10272 10269 10267 10266 10264 10262 10260 10258 10256 10255 10254 10253 10252
10549 10546 10543 10539 10537 10534 10531 10528 10524 10520 10516 10511 10508 10503 10498 10493 10488 10485 10479 10473 10468 10462 10458 10453 10447 10443 10438 10437 10438 10431 10423 10420 10415 10408 10402 10397 10392 10388 10383 10378 10373 10368 10363 10359 10354 10350 10345 10340 10336 10332 10328 10324 10320 10316 10313 10309 10305 10301 10298 10294 10291 10287 10283 10280 10277 10274 10271 10268 10265 10262 10260 10257 10255 10253 10251 10249 10247 10245 10243 10241 10239 10237 10236 10235 10234 10233
10543 10540 10536 10533 10530 10527 10524 10520 10516 10513 10509 10504 10500 10495 10490 10485 10478 10475 10470 10462 10457 10452 10448 10442 10435 10430 10427 10425 10422 10415 10409 10406 10403 10398 10391 10385 10380 10374 10369 10365 10360 10355 10350 10345 10340 10335 10331 10326 10322 10317 10313 10309 10304 10300 10296 10292 10288 10284 10280 10276 10273 10269 10265 10261 10258 10255 10252 10249 10247 10244 10241 10239 10236 10234 10232 10230 10229 10227 10224 10222 10220 10218 10216 10215 10214 10213
10537 10533 10530 10526 10524 10520 10517 10513 10508 10505 10501 10497 10492 10487 10482 10477 10470 10465 10460 10453 10445 10439 10436 10431 10424 10417 10414 10413 10408 10402 10397 10391 10388 10386 10380 10374 10367 10361 10356 10351 10346 10341 10335 10331 10326 10321 10316 10311 10306 10302 10297 10292 10288 10283 10279 10275 10270 10266 10262 10258 10254 10251 10247 10243 10239 10236 10233 10230 10227 10224 10222 10219 10217 10215 10213 10211 10209 10207 10205 10203 10201 10199 10197 10196 10194 10193
10533 10529 10524 10520 10516 10513 10510 10506 10501 10497 10492 10488 10484 10479 10473 10468 10462 10457 10451 10444 10436 10428 10425 10419 10413 10407 10400 10396 10392 10387 10382 10376 10372 10369 10364 10360 10354 10347 10342 10336 10331 10326 10320 10315 10310 10305 10300 10295 10290 10285 10280 10276 10271 10266 10261 10257 10253 10248 10244 10240 10235 10232 10229 10225 10220 10217 10213 10210 10207 10205 10202 10199 10196 10195 10193 10190 10189 10187 10185 10183 10181 10179 10177 10176 10174 10173
10528 10523 10519 10515 10510 10506 10502 10497 10493 10488 10483 10478 10474 10469 10463 10456 10451 10445 10438 10433 10425 10416 10412 10406 10399 10395 10389 10381 10375 10370 10365 10359 10354 10350 10346 10342 10337 10331 10326 10320 10314 10309 10304 10299 10293 10288 10283 10278 10273 10268 10262 10258 10253 10248 10243 10238 10234 10230 10225 10221 10217 10212 10209 10206 10201 10197 10194 10190 10187 10184 10181 10179 10176 10174 10172 10170 10168 10165 10163 10161 10160 10158 10156 10155 10153 10152
10521 10516 10512 10508 10503 10498 10494 10489 10484 10478 10472 10468 10463 10458 10452 10445 10440 10434 10427 10421 10414 10405 10400 10395 10386 10380 10376 10369 10362 10356 10350 10344 10338 10333 10329 10324 10319 10314 10309 10303 10298 10292 10286 10281 10276 10271 10266 10260 10255 10250 10244 10240 10235 10230 10225 10220 10216 10211 10206 10202 10198 10193 10190 10186 10182 10178 10174 10170 10167 10164 10161 10158 10155 10153 10151 10149 10147 10144 10142 10140 10139 10137 10135 10134 10132 10131
10514 10509 10504 10499 10494 10489 10485 10481 10476 10470 10464 10458 10453 10447 10441 10435 10428 10423 10417 10411 10405 10396 10389 10385 10378 10369 10361 10355 10349 10343 10337 10331 10324 10318 10313 10309 10303 10298 10293 10287 10281 10276 10270 10265 10259 10254 10249 10243 10238 10233 10227 10222 10217 10212 10208 10202 10197 10193 10189 10184 10180 10175 10171 10167 10163 10159 10155 10151 10147 10143 10140 10137 10134 10132 10129 10127 10125 10123 10121 10119 10117 10116 10114 10113 10111 10109
10509 10504 10498 10492 10487 10482 10477 10472 10466 10461 10455 10449 10443 10436 10430 10423 10416 10409 10404 10398 10392 10384 10376 10371 10367 10360 10351 10342 10334 10328 10323 10318 10311 10305 10299 10294 10288 10282 10277 10271 10265 10260 10255 10249 10243 10238 10232 10226 10221 10215 10210 10205 10200 10195 10190 10185 10180 10175 10171 10166 10162 10157 10153 10149 10145 10140 10136 10132 10128 10123 10120 10117 10114 10111 10108 10106 10104 10102 10100 10098 10096 10095 10093 10092 10090 10089
10503 10499 10493 10487 10481 10475 10469 10464 10458 10451 10445 10438 10432 10425 10417 10410 10403 10396 10390 10383 10377 10370 10362 10354 10349 10346 10340 10333 10323 10314 10308 10303 10297 10292 10286 10280 10274 10268 10262 10256 10250 10245 10240 10234 10227 10221 10216 10210 10204 10198 10193 10188 10183 10177 10173 10168 10162 10157 10153 10148 10144 10139 10135 10131 10127 10122 10118 10113 10109 10105 10101 10098 10095 10091 10089 10086 10084 10082 10080 10078 10076 10074 10072 10071 10069 10068
10496 10491 10486 10480 10474 10467 10460 10454 10448 10441 10434 10427 10419 10412 10405 10398 10391 10384 10378 10372 10364 10358 10352 10342 10332 10329 10325 10319 10313 10305 10297 10291 10284 10277 10272 10266 10261 10254 10247 10241 10236 10230 10225 10220 10213 10207 10201 10195 10188 10182 10177 10172 10166 10160 10155 10151 10145 10140 10135 10131 10126 10121 10117 10113 10108 10104 10100 10095 10091 10086 10082 10079 10076 10072 10069 10067 10065 10062 10060 10058 10056 10054 10052 10051 10049 10047
10491 10484 10478 10472 10465 10458 10451 10443 10436 10429 10421 10414 10407 10400 10393 10386 10380 10373 10366 10361 10354 10348 10345 10335 10321 10316 10313 10304 10297 10292 10286 10279 10272 10264 10258 10252 10246 10239 10232 10225 10220 10215 10209 10204 10198 10192 10186 10181 10174 10168 10162 10157 10151 10145 10139 10134 10129 10123 10118 10114 10109 10103 10099 10094 10089 10085 10081 10076 10072 10068 10064 10060 10056 10053 10051 10048 10045 10043 10040 10038 10036 10034 10032 10031 10029 10027
10484 10477 10470 10462 10454 10447 10440 10433 10425 10418 10409 10401 10394 10387 10380 10373 10367 10360 10352 10344 10339 10335 10333 10326 10311 10304 10303 10296 10286 10280 10274 10267 10261 10254 10247 10241 10234 10227 10219 10213 10207 10201 10195 10189 10184 10178 10172 10167 10160 10154 10149 10143 10137 10132 10125 10119 10114 10109 10104 10099 10093 10087 10082 10077 10072 10067 10063 10058 10054 10050 10045 10041 10037 10034 10031 10029 10026 10024 10021 10019 10016 10014 10012 10010 10009 10007
10476 10468 10460 10453 10445 10438 10431 10423 10415 10408 10400 10391 10384 10376 10370 10363 10357 10352 10343 10332 10325 10321 10320 10316 10305 10294 10291 10286 10277 10269 10263 10256 10250 10244 10237 10230 10224 10215 10208 10201 10195 10188 10181 10175 10169 10164 10158 10153 10147 10140 10135 10129 10123 10117 10111 10105 10099 10094 10089 10084 10079 10073 10067 10061 10056 10051 10047 10042 10037 10033 10028 10023 10019 10015 10012 10009 10006 10004 10002 9999 9997 9995 9993 9991 9989 9987
10468 10460 10452 10444 10437 10430 10422 10415 10407 10399 10392 10384 10377 10370 10363 10357 10350 10344 10336 10325 10316 10312 10308 10304 10298 10288 10281 10275 10267 10259 10252 10245 10239 10233 10227 10219 10211 10203 10196 10189 10182 10175 10168 10161 10155 10148 10142 10138 10133 10127 10120 10114 10108 10102 10096 10090 10084 10079 10074 10069 10064 10058 10052 10046 10040 10035 10031 10026 10021 10017 10012 10007 10003 9998 9995 9991 9988 9985 9982 9980 9977 9975 9973 9971 9969 9968
10461 10453 10445 10436 10428 10420 10412 10405 10397 10389 10382 10374 10367 10360 10354 10349 10343 10335 10327 10318 10309 10303 10299 10293 10286 10280 10274 10267 10259 10251 10242 10234 10227 10222 10216 10208 10199 10190 10183 10176 10169 10162 10155 10148 10142 10135 10128 10121 10116 10112 10106 10100 10093 10087 10081 10074 10069 10064 10058 10053 10048 10042 10036 10030 10025 10019 10015 10010 10005 10000 9996 9991 9987 9982 9978 9974 9971 9968 9965 9962 9959 9957 9954 9952 9950 9948
10455 10447 10440 10432 10424 10415 10406 10397 10390 10383 10376 10369 10361 10354 10347 10342 10337 10328 10319 10312 10303 10295 10290 10285 10276 10268 10264 10257 10249 10242 10233 10224 10217 10211 10206 10198 10187 10178 10171 10165 10158 10152 10144 10137 10130 10124 10117 10110 10103 10097 10091 10085 10079 10072 10066 10059 10053 10047 10042 10036 10030 10025 10019 10013 10008 10003 9998 9993 9988 9983 9979 9975 9971 9966 9962 9958 9955 9951 9948 9945 9942 9940 9937 9935 9932 9930
10450 10441 10433 10426 10420 10413 10404 10396 10388 10380 10372 10365 10358 10350 10343 10338 10333 10325 10315 10308 10301 10291 10285 10280 10271 10259 10253 10247 10239 10232 10225 10216 10209 10204 10199 10191 10181 10172 10164 10156 10149 10142 10135 10128 10121 10114 10107 10100 10093 10086 10079 10071 10065 10058 10051 10044 10037 10031 10025 10020 10014 10009 10003 9997 9992 9987 9982 9977 9972 9967 9962 9958 9954 9950 9946 9943 9939 9935 9932 9928 9926 9923 9921 9918 9915 9912
10444 10435 10426 10418 10411 10404 10397 10389 10381 10373 10364 10356 10348 10340 10334 10330 10325 10318 10309 10301 10295 10287 10277 10272 10266 10256 10245 10237 10230 10222 10215 10207 10201 10196 10189 10181 10173 10165 10157 10149 10141 10133 10125 10118 10111 10103 10096 10089 10081 10075 10068 10060 10053 10046 10039 10031 10023 10017 10011 10005 10000 9995 9989 9982 9977 9971 9966 9961 9955 9950 9945 9941 9937 9933 9929 9926 9923 9919 9915 9912 9909 9907 9904 9901 9898 9895
10439 10430 10421 10412 10403 10395 10387 10379 10372 10365 10357 10348 10339 10331 10323 10319 10315 10309 10301 10292 10285 10278 10270 10261 10257 10251 10240 10229 10221 10213 10204 10195 10189 10184 10177 10168 10160 10153 10146 10138 10130 10122 10114 10106 10099 10091 10085 10079 10071 10063 10056 10049 10042 10034 10027 10019 10011 10003 9997 9991 9986 9981 9975 9968 9962 9956 9951 9946 9940 9935 9930 9925 9920 9916 9913 9910 9906 9902 9899 9896 9894 9891 9888 9885 9882 9879
10435 10426 10417 10408 10399 10390 10383 10375 10367 10360 10352 10344 10335 10325 10316 10310 10307 10302 10293 10285 10276 10270 10263 10254 10245 10241 10234 10222 10212 10204 10195 10186 10179 10173 10165 10156 10149 10141 10134 10127 10119 10112 10104 10096 10088 10080 10073 10067 10061 10054 10046 10038 10031 10023 10014 10006 9998 9990 9983 9978 9972 9966 9959 9953 9946 9941 9935 9930 9925 9920 9915 9910 9905 9900 9897 9894 9890 9886 9883 9880 9878 9875 9872 9869 9866 9863
10430 10422 10413 10404 10396 10387 10379 10371 10363 10355 10348 10340 10331 10322 10312 10303 10300 10296 10288 10280 10271 10262 10256 10249 10238 10230 10225 10216 10205 10195 10186 10177 10171 10165 10156 10147 10139 10130 10123 10116 10109 10101 10094 10086 10078 10070 10062 10055 10048 10041 10034 10026 10018 10010 10001 9993 9984 9977 9970 9964 9958 9951 9944 9937 9931 9925 9919 9914 9909 9904 9899 9894 9889 9885 9882 9878 9874 9871 9867 9865 9862 9859 9856 9853 9850 9847
10425 10416 10408 10400 10392 10383 10375 10367 10359 10351 10343 10336 10328 10319 10309 10298 10292 10289 10283 10275 10267 10259 10250 10244 10236 10225 10218 10211 10201 10191 10180 10170 10163 10157 10148 10139 10130 10122 10112 10104 10096 10088 10080 10073 10065 10057 10049 10042 10035 10027 10020 10012 10004 9996 9987 9979 9970 9962 9956 9950 9944 9937 9930 9923 9916 9910 9905 9899 9894 9889 9884 9879 9874 9870 9866 9863 9859 9855 9852 9849 9846 9843 9840 9837 9834 9831
10421 10413 10404 10396 10388 10379 10371 10363 10356 10348 10340 10332 10324 10316 10307 10296 10285 10280 10276 10268 10260 10253 10244 10236 10230 10221 10212 10204 10195 10185 10176 10165 10156 10150 10142 10131 10122 10113 10104 10095 10086 10078 10070 10061 10053 10045 10037 10029 10022 10015 10007 10000 9992 9983 9974 9965 9956 9948 9942 9936 9930 9924 9917 9909 9903 9897 9892 9886 9881 9876 9871 9866 9860 9856 9852 9848 9844 9840 9837 9834 9831 9828 9825 9821 9818 9816
10417 10409 10401 10392 10384 10376 10369 10361 10354 10347 10338 10329 10322 10314 10305 10294 10280 10271 10267 10261 10252 10245 10237 10228 10220 10213 10204 10196 10186 10176 10165 10155 10146 10141 10134 10124 10115 10105 10096 10087 10079 10070 10062 10053 10045 10036 10028 10019 10011 10003 9996 9988 9980 9971 9962 9953 9944 9936 9929 9924 9918 9911 9904 9896 9890 9884 9878 9873 9868 9863 9858 9852 9847 9842 9838 9834 9830 9826 9823 9820 9817 9813 9810 9807 9803 9800
10414 10406 10399 10390 10381 10373 10365 10357 10348 10341 10334 10325 10317 10309 10300 10292 10280 10266 10259 10256 10248 10239 10231 10222 10213 10204 10196 10188 10181 10172 10160 10147 10136 10129 10122 10115 10107 10099 10088 10079 10070 10061 10052 10044 10036 10027 10018 10010 10001 9992 9984 9976 9967 9958 9949 9940 9932 9924 9917 9911 9905 9899 9891 9883 9877 9871 9866 9860 9855 9850 9845 9839 9834 9829 9825 9821 9816 9812 9809 9806 9803 9799 9796 9792 9788 9785
10411 10403 10395 10388 10379 10370 10362 10353 10343 10335 10329 10321 10312 10304 10295 10288 10279 10265 10253 10247 10241 10233 10224 10216 10208 10199 10191 10183 10176 10168 10158 10144 10130 10121 10114 10104 10097 10091 10081 10071 10061 10052 10043 10034 10026 10017 10007 9998 9989 9980 9972 9964 9955 9946 9937 9928 9920 9912 9905 9899 9893 9886 9878 9871 9864 9858 9853 9848 9842 9837 9832 9826 9821 9816 9812 9808 9803 9799 9796 9793 9789 9786 9782 9778 9774 9771
10407 10400 10392 10385 10377 10368 10359 10352 10343 10332 10323 10315 10307 10300 10293 10286 10279 10267 10251 10240 10234 10227 10218 10209 10201 10193 10184 10176 10168 10159 10151 10139 10125 10115 10107 10097 10088 10081 10073 10063 10053 10043 10033 10023 10013 10005 9995 9985 9977 9969 9961 9953 9945 9935 9926 9916 9908 9900 9893 9887 9882 9874 9866 9859 9852 9846 9841 9836 9830 9825 9819 9813 9808 9803 9798 9794 9790 9786 9783 9779 9776 9772 9769 9765 9761 9757
10403 10396 10389 10381 10374 10367 10358 10349 10341 10331 10320 10312 10304 10298 10291 10283 10277 10269 10256 10241 10230 10222 10213 10204 10195 10187 10177 10168 10159 10151 10144 10134 10120 10108 10100 10091 10080 10072 10064 10055 10044 10032 10021 10010 10000 9991 9983 9973 9964 9957 9950 9942 9935 9926 9916 9906 9896 9888 9882 9875 9869 9862 9854 9847 9840 9835 9830 9824 9818 9812 9807 9801 9795 9790 9786 9782 9777 9773 9770 9766 9763 9759 9755 9751 9747 9743
10396 10390 10384 10376 10369 10363 10355 10346 10339 10332 10323 10314 10305 10296 10287 10278 10270 10264 10256 10243 10229 10217 10208 10199 10190 10181 10171 10161 10151 10143 10137 10130 10116 10102 10094 10086 10075 10066 10057 10047 10037 10026 10014 10003 9991 9981 9972 9963 9953 9945 9937 9930 9923 9915 9906 9896 9886 9877 9870 9864 9857 9849 9842 9835 9828 9824 9819 9813 9806 9800 9794 9789 9783 9778 9774 9769 9765 9761 9757 9754 9750 9747 9743 9739 9734 9730
10390 10382 10376 10369 10361 10354 10347 10340 10334 10327 10318 10309 10299 10289 10280 10271 10262 10255 10248 10240 10228 10216 10206 10195 10184 10174 10164 10154 10144 10134 10127 10123 10113 10097 10084 10076 10067 10057 10049 10039 10029 10019 10009 9998 9986 9974 9963 9954 9944 9934 9926 9918 9911 9903 9893 9884 9874 9866 9859 9852 9845 9837 9830 9823 9817 9813 9808 9801 9795 9789 9782 9777 9772 9767 9762 9757 9753 9749 9745 9742 9738 9734 9730 9727 9722 9718
10385 10376 10369 10361 10353 10346 10339 10330 10322 10315 10307 10299 10289 10281 10272 10262 10253 10245 10238 10231 10223 10211 10200 10189 10177 10166 10157 10147 10137 10125 10114 10110 10106 10093 10078 10066 10055 10044 10035 10027 10018 10008 9999 9990 9980 9968 9955 9944 9934 9924 9915 9907 9899 9890 9881 9872 9862 9854 9847 9840 9833 9825 9818 9811 9806 9802 9797 9790 9784 9777 9772 9766 9761 9756 9751 9746 9742 9737 9733 9730 9727 9722 9719 9715 9711 9706
10380 10371 10363 10356 10347 10340 10334 10326 10316 10307 10299 10291 10282 10273 10265 10255 10244 10233 10224 10217 10210 10201 10189 10179 10169 10160 10149 10139 10130 10119 10105 10093 10088 10082 10070 10058 10046 10034 10022 10013 10004 9995 9986 9977 9969 9959 9947 9935 9925 9914 9904 9895 9887 9879 9870 9860 9851 9843 9835 9828 9821 9813 9806 9800 9795 9791 9785 9779 9772 9766 9761 9756 9750 9745 9740 9736 9731 9726 9722 9719 9715 9711 9707 9703 9699 9695
10378 10368 10359 10351 10343 10335 10328 10322 10314 10304 10294 10286 10277 10266 10256 10246 10237 10226 10213 10202 10195 10188 10179 10169 10160 10151 10142 10131 10121 10112 10100 10086 10074 10066 10056 10045 10035 10026 10014 10004 9994 9984 9974 9964 9955 9946 9936 9924 9913 9904 9894 9884 9876 9868 9859 9849 9840 9833 9825 9817 9809 9802 9795 9789 9785 9780 9774 9768 9761 9756 9750 9745 9739 9734 9730 9725 9721 9715 9711 9708 9704 9700 9696 9692 9687 9682
10375 10366 10356 10347 10339 10330 10321 10314 10309 10303 10292 10280 10270 10260 10249 10239 10229 10220 10209 10195 10183 10176 10169 10160 10150 10142 10134 10125 10113 10102 10093 10081 10068 10057 10047 10036 10025 10016 10006 9995 9984 9974 9964 9953 9943 9934 9925 9914 9903 9893 9883 9873 9865 9857 9848 9838 9830 9822 9814 9806 9798 9791 9784 9779 9774 9769 9763 9756 9750 9745 9739 9734 9728 9724 9719 9715 9710 9705 9700 9697 9694 9689 9685 9681 9676 9671
10369 10362 10353 10344 10334 10325 10315 10305 10296 10291 10284 10273 10261 10251 10243 10233 10224 10215 10207 10197 10184 10172 10163 10154 10144 10134 10125 10117 10108 10096 10085 10075 10064 10052 10042 10030 10017 10006 9995 9984 9973 9964 9954 9944 9933 9922 9913 9903 9892 9882 9872 9863 9854 9846 9837 9828 9820 9812 9804 9796 9788 9780 9773 9768 9763 9757 9751 9745 9739 9734 9728 9723 9717 9713 9709 9704 9700 9695 9690 9687 9683 9679 9675 9671 9666 9661
10365 10356 10348 10340 10331 10320 10310 10299 10286 10277 10273 10267 10256 10244 10233 10223 10215 10207 10199 10192 10181 10170 10160 10150 10140 10129 10118 10108 10100 10089 10077 10068 10058 10046 10034 10024 10011 9999 9988 9976 9964 9953 9943 9932 9921 9910 9900 9890 9880 9871 9861 9852 9843 9835 9826 9817 9810 9802 9794 9785 9777 9770 9763 9758 9752 9746 9740 9735 9729 9723 9717 9712 9707 9702 9698 9694 9689 9684 9680 9677 9673 9669 9665 9661 9656 9651
10362 10353 10344 10336 10328 10317 10306 10297 10285 10273 10265 10260 10253 10245 10235 10223 10211 10201 10190 10181 10173 10163 10154 10145 10135 10125 10113 10102 10092 10082 10069 10058 10049 10038 10025 10014 10003 9991 9980 9968 9955 9943 9932 9921 9910 9899 9889 9879 9869 9859 9849 9840 9832 9824 9816 9807 9800 9792 9784 9775 9767 9760 9754 9748 9742 9736 9730 9724 9719 9712 9707 9701 9696 9692 9688 9683 9679 9675 9670 9667 9663 9659 9655 9652 9647 9642
10357 10351 10342 10332 10325 10319 10308 10298 10288 10276 10266 10258 10250 10240 10232 10221 10209 10199 10190 10180 10170 10160 10149 10139 10129 10118 10106 10094 10083 10074 10061 10049 10040 10030 10017 10005 9993 9982 9970 9959 9947 9935 9924 9913 9902 9890 9879 9869 9859 9849 9839 9829 9821 9813 9805 9797 9790 9783 9774 9765 9757 9751 9745 9738 9732 9726 9720 9714 9709 9702 9697 9691 9686 9682 9677 9673 9669 9665 9661 9658 9654 9650 9646 9643 9638 9633
10354 10347 10340 10330 10321 10315 10308 10298 10288 10276 10264 10256 10248 10238 10227 10217 10205 10194 10185 10176 10166 10155 10144 10133 10122 10111 10100 10088 10076 10066 10054 10041 10030 10022 10010 9997 9985 9974 9962 9951 9940 9928 9916 9905 9893 9881 9869 9859 9849 9839 9829 9820 9811 9803 9795 9788 9781 9773 9764 9755 9748 9741 9734 9728 9722 9716 9710 9705 9699 9693 9687 9682 9677 9672 9667 9662 9658 9655 9652 9648 9645 9641 9637 9634 9629 9624
10350 10342 10336 10328 10317 10309 10302 10294 10286 10275 10261 10248 10241 10233 10225 10216 10205 10192 10181 10171 10161 10151 10140 10128 10115 10103 10092 10081 10069 10059 10048 10035 10022 10012 10001 9989 9977 9965 9954 9942 9931 9919 9907 9894 9883 9871 9859 9849 9839 9829 9820 9811 9801 9793 9785 9778 9771 9764 9755 9746 9739 9732 9725 9718 9712 9706 9701 9695 9689 9683 9677 9672 9667 9662 9657 9652 9648 9644 9642 9639 9636 9632 9628 9625 9621 9616
10343 10335 10329 10323 10313 10303 10296 10288 10282 10276 10265 10250 10238 10228 10218 10209 10200 10189 10179 10168 10158 10148 10137 10125 10111 10096 10082 10071 10060 10051 10041 10029 10015 10003 9991 9978 9966 9955 9943 9931 9919 9907 9894 9882 9871 9860 9850 9840 9830 9820 9810 9801 9792 9783 9776 9768 9761 9754 9745 9738 9731 9723 9716 9710 9703 9697 9692 9686 9680 9674 9668 9663 9658 9653 9648 9643 9638 9634 9631 9629 9627 9624 9620 9616 9612 9608
10336 10329 10321 10315 10307 10297 10288 10280 10271 10265 10260 10249 10237 10225 10214 10204 10195 10185 10175 10165 10154 10142 10131 10120 10109 10097 10081 10066 10052 10042 10032 10022 10008 9996 9984 9970 9955 9942 9930 9919 9908 9897 9886 9873 9862 9851 9841 9831 9821 9811 9801 9792 9783 9774 9767 9759 9752 9744 9736 9729 9722 9715 9708 9701 9694 9687 9682 9677 9671 9665 9660 9654 9649 9644 9639 9634 9630 9625 9621 9618 9617 9616 9613 9608 9603 9599
10328 10322 10314 10308 10301 10291 10282 10273 10262 10254 10248 10240 10231 10221 10210 10200 10190 10180 10169 10158 10147 10135 10123 10113 10103 10093 10081 10066 10050 10034 10023 10013 10000 9986 9973 9960 9945 9932 9921 9910 9899 9889 9879 9867 9854 9843 9833 9823 9813 9803 9793 9783 9774 9765 9758 9751 9743 9735 9727 9720 9713 9706 9699 9693 9686 9679 9674 9668 9663 9657 9652 9647 9641 9636 9631 9626 9622 9617 9613 9608 9605 9605 9605 9603 9597 9590